This is the latest recevied weather packets stored in our database for station/object LX0APE-4. If no packets are shown the sender has not sent any weather packets the latest 10 day(s).
| Time | Temp. | Humidity | Pressure | Rain* | Wind** | Luminosity | Snow |
|---|---|---|---|---|---|---|---|
| 1777058537 | 15.56° C | 20% | 5016.6 hPa | 0 mm | - | - | - |
| 1777058237 | 15.56° C | 19% | 5016.7 hPa | 0 mm | - | - | - |
| 1777057937 | 16.11° C | 19% | 5016.6 hPa | 0 mm | - | - | - |
| 1777057642 | 16.11° C | 18% | 5016.6 hPa | 0 mm | - | - | - |
| 1777057637 | 16.11° C | 18% | 5016.6 hPa | 0 mm | - | - | - |
| 1777057337 | 16.11° C | 18% | 5016.8 hPa | 0 mm | - | - | - |
| 1777057040 | 16.67° C | 18% | 5016.7 hPa | 0 mm | - | - | - |
| 1777056737 | 16.67° C | 18% | 5016.7 hPa | 0 mm | - | - | - |
| 1777056437 | 16.67° C | 18% | 5016.6 hPa | 0 mm | - | - | - |
| 1777056137 | 17.22° C | 18% | 5016.6 hPa | 0 mm | - | - | - |
| 1777055837 | 17.78° C | 17% | 5016.6 hPa | 0 mm | - | - | - |
| 1777055538 | 18.33° C | 17% | 5016.7 hPa | 0 mm | - | - | - |
| 1777055237 | 19.44° C | 17% | 5016.6 hPa | 0 mm | - | - | - |
| 1777054937 | 20° C | 16% | 5016.5 hPa | 0 mm | - | - | - |
| 1777054637 | 20° C | 16% | 5016.5 hPa | 0 mm | - | - | - |
| 1777054337 | 20° C | 16% | 5016.5 hPa | 0 mm | - | - | - |
| 1777054037 | 20° C | 17% | 5016.4 hPa | 0 mm | - | - | - |
| 1777053737 | 20.56° C | 16% | 5016.4 hPa | 0 mm | - | - | - |
| 1777053437 | 21.67° C | 16% | 5016.5 hPa | 0 mm | - | - | - |
| 1777053138 | 21.11° C | 16% | 5016.4 hPa | 0 mm | - | - | - |
| 1777052837 | 21.11° C | 16% | 5016.3 hPa | 0 mm | - | - | - |
| 1777052537 | 22.22° C | 15% | 5016.4 hPa | 0 mm | - | - | - |
| 1777052242 | 23.89° C | 14% | 5016.4 hPa | 0 mm | - | - | - |
| 1777052238 | 23.89° C | 14% | 5016.4 hPa | 0 mm | - | - | - |
| 1777051938 | 25° C | 14% | 5016.4 hPa | 0 mm | - | - | - |
* Rain latest hour (hover to see other rain measurements)
** Current wind speed in m/s (hover to see current wind gust speed)